STARLINK-32447, 61261

Orbit data source: Space-Track

STARLINK-32447, 61261 is a payload satellite owned by SpaceX/Seattle (US) in LEO that was launched on Wed, 25 Sep 2024 UTC via an FALCON 9 launch vehicle from the Air Force Western Test Range (AFWTR). Payload-class satellites include a variety of spacecraft equipped with specific instruments for various scientific and technological missions. These include communications satellites like Starlink; space stations such as the ISS; scientific satellites like the Hubble; Earth observation satellites from companies like Planet Labs, Umbra, and HawkEye 360; GPS; miniature CubeSats for education and research; and military/defense satellites.

Loading next visibility...
Identifier
61261, 2024-175U
Orbit
LEO
Country
Flag of USUS
Related business
Manufacturer
SpaceX/Seattle
Mission
Operational Commercial Communications
Bus & Motor
STARLINK V2M, Unknown motor
Mass
730 kg wet, ~700 kg dry
Launch date (UTC)
2024-09-25 (2 years ago)
Launch vehicle
FALCON 9
Launch site
Air Force Western Test Range (AFWTR)
Object type
Payload
Rocket body
Debris
Shape & HBR
Box + 2 Pan, 17.7 m
Radar Cross Section
33.884 m², Large (>1 m²)

Expand to show TLE details & history
Last TLE update: 10 hours ago

TLE from 10 hours ago
0 STARLINK-32447
1 61261U 24175U   26267.25784567  .00004247  00000-0  13678-3 0  9997
2 61261  53.1615 348.2831 0001487  94.7307 265.3865 15.34392845111909
Epoch: 2026-09-24T06:11Z
TLE epoch observation values (Epoch: 2026-09-24T06:11:17.865Z)
Latitude
-0.00008°
Longitude
-107.6386°
Altitude
463.708 km
Speed
7.636 km/s
True Right ascension
23h 13m 07s
True Declination
0° 00' 00"
Sunlit
Object was in full shadow at epoch
Visualization orbit readout
Latitude
Unknown
Longitude
Unknown
Altitude
Unknown
Speed
Unknown
Apparent Right ascension
Unknown
Apparent Declination
Unknown
Sunlit
N/A
Visualization observer readout
Local Sidereal Time
09:54:39
Azimuth
Unknown
Elevation
Unknown
Doppler factor
Unknown
Orbital elements
Apogee altitude
463.998 km
Perigee altitude
461.964 km
Semi-major axis
6,841.118 km
Eccentricity
0.00015
Inclination
53.1615°
RAAN
348.2831°
Arg. of periapsis
94.7307°
True anomaly
265.36952°
Mean anomaly
265.3865°
Eccentric anomaly
265.37801°
Mean motion
3.83577 °/min
Orbital period
93.85 mins
BSTAR
0.00013678
Loading maneuver chart data...
Computing Atmospheric mass density...
Loading historical data...
Loading historical data...
Loading historical data...
Loading historical data...
Loading historical data...
Loading historical data...
Loading historical data...

Documentation

Showing up to 5 results
|